Location: Perugia
(43.1330°N, 12.3670°E)
Time: 07:01:03
(UTC+01:00)

ISS - Pass Details

Date: 25 January 2021
Orbit: 417 x 422 km, 51.6° (Epoch: 05 March)

Event Time Altitude Azimuth Distance (km) Brightness Sun altitude
Rises 17:57:12 0° 265° (W) 2,365 2.0 -8.2°
Reaches altitude 10° 17:59:27 10° 276° (W) 1,503 0.3 -8.6°
Maximum altitude 18:02:29 30° 340° (NNW) 784 -2.4 -9.1°
Enters shadow 18:05:25 11° 43° (NE) 1,469 -1.5 -9.6°
